This demonstration page uses our WeatherBlox Daily Observations layout. Learn more.

Left ArrowRight Arrow

44.8408, -93.29828

Hourly Observations for March 10, 2015

Temp ( °F °C ) Dew Point ( °F °C ) Humidity (%) Winds ( mph kmh ) Pressure ( in mb ) Visibility ( mi km ) Precip ( " mm )
12:53 am 00:53 Clear 44 6.7 31 -0.6 60 60 SSW 9 15 29.89 1012 10 16 0.00 0.00
1:53 am 01:53 Clear 43 6.1 30 -1.1 60 60 SSW 7 11 29.88 1012 10 16 0.00 0.00
2:53 am 02:53 Clear 42 5.6 29 -1.7 60 60 S 6 9 29.88 1012 10 16 0.00 0.00
3:53 am 03:53 Clear 40 4.4 28 -2.2 63 63 SSW 8 13 29.87 1011 10 16 0.00 0.00
4:53 am 04:53 Clear 39 3.9 28 -2.2 65 65 S 6 9 29.85 1011 10 16 0.00 0.00
5:53 am 05:53 Clear 38 3.3 28 -2.2 68 68 S 5 7 29.85 1011 10 16 0.00 0.00
6:53 am 06:53 Clear 38 3.3 28 -2.2 68 68 S 5 7 29.86 1011 10 16 0.00 0.00
7:53 am 07:53 Mostly Sunny 38 3.3 27 -2.8 65 65 SSW 5 7 29.86 1011 10 16 0.00 0.00
8:53 am 08:53 Mostly Sunny 40 4.4 28 -2.2 63 63 SW 6 9 29.86 1011 10 16 0.00 0.00
9:53 am 09:53 Sunny 45 7.2 28 -2.2 52 52 SW 8 13 29.87 1011 10 16 0.00 0.00
10:53 am 10:53 Sunny 48 8.9 29 -1.7 48 48 SSW 8 13 29.86 1011 10 16 0.00 0.00
11:53 am 11:53 Sunny 53 11.7 30 -1.1 41 41 SSW 8 13 29.86 1011 10 16 0.00 0.00
12:53 pm 12:53 Sunny 58 14.4 31 -0.6 36 36 SW 9 15 29.85 1011 10 16 0.00 0.00
1:53 pm 13:53 Sunny 61 16.1 32 0 34 34 SW 12 19 29.84 1010 10 16 0.00 0.00
2:53 pm 14:53 Sunny 64 17.8 34 1.1 33 33 WSW 13 20 29.83 1010 10 16 0.00 0.00
3:53 pm 15:53 Sunny 64 17.8 36 2.2 35 35 W 15 24 29.85 1011 10 16 0.00 0.00
4:53 pm 16:53 Sunny 63 17.2 33 0.6 33 33 WNW 14 22 29.87 1012 10 16 0.00 0.00
5:53 pm 17:53 Sunny 61 16.1 26 -3.3 26 26 WNW 20 31 29.90 1013 10 16 0.00 0.00
6:53 pm 18:53 Sunny 56 13.3 30 -1.1 37 37 NW 16 26 29.94 1014 10 16 0.00 0.00
7:53 pm 19:53 Clear 52 11.1 32 0 47 47 WNW 10 17 29.99 1016 10 16 0.00 0.00
8:53 pm 20:53 Clear 47 8.3 31 -0.6 54 54 WNW 8 13 30.03 1017 10 16 0.00 0.00
9:53 pm 21:53 Clear 44 6.7 30 -1.1 58 58 NW 8 13 30.06 1018 10 16 0.00 0.00
10:53 pm 22:53 Clear 44 6.7 30 -1.1 58 58 NW 6 9 30.11 1020 10 16 0.00 0.00
11:53 pm 23:53 Clear 39 3.9 27 -2.8 62 62 WNW 8 13 30.14 1021 10 16 0.00 0.00

Powered by AerisWeather